DL1DUR-2 Weather Reports


time (UTC)temp
F
wind
direction
speed
knots
gust
knots
rain 1hr
in
rain 24hr
in
rain mn
in
humidity
%
barometer
mb
20260507060204 51 113 1.7 3.5 0.00 0.54 0.54 96 1008.9
20260507055704 50 99 2.6 4.3 0.00 0.54 0.54 96 1008.9
20260507055204 50 82 2.6 4.3 0.00 0.54 0.54 96 1009.1
20260507054705 50 101 1.7 4.3 0.00 0.54 0.54 96 1008.9
20260507054204 50 92 1.7 4.3 0.00 0.54 0.54 96 1008.8
20260507053704 50 86 1.7 4.3 0.00 0.54 0.54 96 1008.8
20260507053204 50 150 0.9 4.3 0.00 0.54 0.54 96 1008.8
20260507052704 50 123 0.0 1.7 0.01 0.54 0.54 96 1008.6
20260507051704 50 106 0.0 0.9 0.02 0.54 0.54 96 1008.6
20260507051205 50 173 0.0 2.6 0.04 0.54 0.54 96 1008.5
20260507050704 50 134 0.0 2.6 0.05 0.54 0.54 96 1008.5
20260507050204 50 200 0.9 2.6 0.06 0.54 0.54 96 1008.5
20260507045704 50 153 0.9 2.6 0.07 0.54 0.54 96 1008.3
20260507045205 50 150 0.0 2.6 0.08 0.54 0.54 96 1008.3
20260507044705 50 127 0.0 0.0 0.09 0.54 0.54 96 1008.3
20260507044205 50 169 0.0 1.7 0.09 0.54 0.54 96 1008.3
20260507043704 50 69 0.0 1.7 0.09 0.54 0.54 96 1008.4
20260507043204 50 54 0.0 1.7 0.11 0.54 0.54 96 1008.3
20260507042704 50 76 0.0 2.6 0.10 0.54 0.54 96 1008.3
20260507042204 50 24 0.0 2.6 0.09 0.52 0.52 96 1008.4
20260507041204 51 62 0.9 3.5 0.10 0.50 0.50 96 1008.2
20260507040704 51 17 0.9 3.5 0.11 0.50 0.50 96 1008.1
20260507040204 51 355 0.9 2.6 0.09 0.48 0.48 96 1008.1
20260507035705 51 19 0.9 2.6 0.09 0.46 0.46 96 1008.1
20260507034704 51 38 0.9 2.6 0.08 0.46 0.46 96 1008.2
20260507033204 51 34 0.9 3.5 0.06 0.43 0.43 95 1008.0
20260507032704 51 16 0.9 3.5 0.05 0.43 0.43 95 1008.0
20260507032203 51 26 0.9 4.3 0.04 0.42 0.42 95 1007.9
20260507031704 51 38 1.7 4.3 0.03 0.41 0.39 95 1007.9
20260507030704 51 76 0.9 2.6 0.01 0.39 0.39 95 1007.9
20260507030204 51 92 0.0 2.6 0.01 0.39 0.39 95 1007.9
20260507025704 51 54 0.9 1.7 0.00 0.38 0.38 95 1007.8
20260507024704 51 0 0.0 2.6 0.00 0.38 0.38 95 1007.7
20260507024204 51 36 0.9 2.6 0.01 0.38 0.38 95 1007.7
20260507023705 51 58 0.9 4.3 0.01 0.38 0.38 95 1007.6
20260507023204 51 23 0.9 5.2 0.01 0.38 0.38 95 1007.8
20260507022204 52 24 2.6 6.1 0.01 0.38 0.38 95 1007.7
20260507021704 52 50 1.7 7.8 0.01 0.38 0.38 95 1007.7
20260507021204 52 11 1.7 8.7 0.02 0.38 0.38 95 1007.6
20260507020704 52 350 3.5 8.7 0.02 0.38 0.38 94 1007.6
20260507020204 53 37 3.5 7.0 0.02 0.38 0.38 95 1007.6
20260507015704 53 16 2.6 5.2 0.02 0.38 0.38 95 1007.5
20260507015203 53 28 2.6 6.1 0.03 0.38 0.38 95 1007.7
20260507014704 53 46 2.6 6.1 0.04 0.37 0.37 95 1007.6
20260507013704 54 31 1.7 6.1 0.06 0.38 0.37 95 1007.5
20260507012704 54 316 1.7 4.3 0.12 0.38 0.37 95 1007.4
20260507012204 54 21 1.7 4.3 0.14 0.38 0.37 95 1007.1
20260507011707 54 247 1.7 3.5 0.17 0.38 0.37 95 1007.0
20260507011204 54 0 1.7 3.5 0.20 0.37 0.36 95 1007.0
20260507010704 54 36 1.7 3.5 0.26 0.37 0.36 95 1007.1
20260507010204 54 338 1.7 2.6 0.27 0.36 0.35 95 1007.0
20260507005704 54 311 0.9 2.6 0.28 0.36 0.35 95 1007.0
20260507005204 54 12 1.7 2.6 0.26 0.35 0.34 95 1007.0
20260507004704 54 290 1.7 2.6 0.25 0.33 0.32 94 1007.0
20260507004204 54 274 0.9 1.7 0.24 0.32 0.31 94 1007.0
20260507003704 54 276 0.9 2.6 0.22 0.31 0.29 94 1006.9
20260507003205 55 276 0.9 2.6 0.21 0.29 0.28 94 1006.8
20260507002204 55 311 0.9 5.2 0.15 0.24 0.21 94 1006.9
20260507001704 55 355 0.9 5.2 0.13 0.22 0.19 94 1006.7
20260507001204 55 23 1.7 5.2 0.07 0.17 0.13 94 1006.7
20260507000704 55 319 0.9 2.6 0.04 0.15 0.09 94 1006.7
20260507000205 55 329 0.9 2.6 0.02 0.13 0.09 93 1006.6
20260506235704 55 24 0.9 2.6 0.02 0.13 0.08 93 1006.7
20260506235204 55 34 0.9 2.6 0.02 0.14 0.08 93 1006.7
20260506234704 55 338 0.9 3.5 0.02 0.14 0.07 93 1006.6
20260506233204 56 19 0.9 2.6 0.04 0.17 0.06 93 1006.6
20260506232704 56 327 0.9 2.6 0.06 0.20 0.06 93 1006.6
20260506232205 56 330 0.9 2.6 0.06 0.21 0.06 92 1006.5
20260506231204 56 5 0.0 1.7 0.06 0.22 0.06 92 1006.5
20260506225704 56 56 0.0 2.6 0.06 0.24 0.06 91 1006.6
20260506225204 56 57 0.9 3.5 0.06 0.24 0.06 90 1006.5
20260506224204 56 43 0.9 3.5 0.04 0.25 0.04 90 1006.7
20260506223704 56 90 0.9 4.3 0.03 0.24 0.03 92 1006.7
20260506223204 56 77 0.9 4.3 0.02 0.24 0.02 89 1006.7
20260506222704 56 32 1.7 4.3 0.00 0.24 0.00 89 1006.7
20260506222204 56 17 0.9 4.3 0.00 0.26 0.00 89 1006.7
20260506221705 57 14 1.7 4.3 0.00 0.28 0.00 89 1006.8
20260506221204 57 42 1.7 3.5 0.00 0.28 0.00 89 1006.8
20260506220705 57 42 1.7 3.5 0.00 0.29 0.00 89 1006.7
20260506220204 57 355 1.7 3.5 0.00 0.30 0.30 89 1006.7
20260506215707 57 344 0.9 4.3 0.00 0.31 0.30 88 1006.7
20260506214704 57 53 1.7 4.3 0.00 0.31 0.30 88 1006.7
20260506214204 57 355 1.7 4.3 0.00 0.31 0.30 88 1006.7
20260506213704 57 15 1.7 4.3 0.00 0.31 0.30 88 1006.6
20260506213205 57 269 1.7 7.8 0.00 0.31 0.30 88 1006.5
20260506212704 57 10 1.7 7.8 0.00 0.31 0.30 88 1006.7
20260506212206 57 81 2.6 7.8 0.00 0.31 0.30 88 1006.6
20260506211204 58 121 2.6 6.1 0.00 0.31 0.30 88 1006.3
20260506210704 58 92 2.6 6.1 0.00 0.31 0.30 88 1006.4
20260506210204 58 62 1.7 4.3 0.00 0.31 0.30 88 1006.4
20260506205704 58 22 1.7 4.3 0.00 0.31 0.30 88 1006.3
20260506205204 58 69 1.7 3.5 0.00 0.31 0.30 88 1006.2
20260506204704 58 43 0.9 3.5 0.00 0.31 0.30 88 1006.3
20260506204205 58 60 0.9 3.5 0.00 0.31 0.30 88 1006.4
20260506203704 58 14 0.9 2.6 0.00 0.31 0.30 88 1006.4
20260506203204 58 23 0.9 2.6 0.00 0.31 0.30 88 1006.4
20260506202704 58 18 0.9 3.5 0.00 0.31 0.30 87 1006.4
20260506202204 58 323 0.9 3.5 0.00 0.31 0.30 87 1006.4
20260506201704 58 344 0.9 4.3 0.00 0.31 0.30 87 1006.3
20260506201205 58 25 1.7 4.3 0.00 0.31 0.30 87 1006.2
20260506195704 59 34 1.7 3.5 0.00 0.31 0.30 86 1006.4
20260506194204 59 37 0.9 2.6 0.00 0.31 0.30 85 1006.5
20260506193706 59 35 0.9 2.6 0.00 0.31 0.30 85 1006.5
20260506193204 59 45 0.9 2.6 0.00 0.31 0.30 84 1006.4
20260506192705 59 45 0.9 5.2 0.00 0.31 0.30 84 1006.4
20260506192204 60 71 0.9 5.2 0.00 0.31 0.30 84 1006.4
20260506191704 60 330 0.9 5.2 0.00 0.31 0.30 84 1006.3
20260506191205 60 308 0.9 1.7 0.00 0.31 0.30 83 1006.2
20260506190204 61 309 0.9 3.5 0.00 0.31 0.30 82 1006.0
20260506185704 61 325 0.9 3.5 0.00 0.31 0.30 82 1006.0
20260506185204 61 19 0.9 3.5 0.00 0.31 0.30 80 1005.8
20260506184704 61 84 0.9 2.6 0.00 0.31 0.30 80 1005.6
20260506184204 61 18 0.9 2.6 0.00 0.31 0.30 79 1005.7
20260506183705 62 313 1.7 2.6 0.00 0.31 0.30 79 1005.9
20260506182704 62 315 1.7 4.3 0.00 0.31 0.30 78 1005.9
20260506181704 62 320 1.7 3.5 0.00 0.31 0.30 76 1005.6
20260506181204 63 327 1.7 2.6 0.00 0.31 0.30 76 1005.7
20260506180704 63 321 0.9 1.7 0.00 0.31 0.30 75 1005.6
20260506180206 63 306 0.9 2.6 0.00 0.31 0.30 74 1005.6
20260506175704 64 306 0.9 2.6 0.00 0.31 0.30 74 1005.5
20260506175204 64 304 0.9 2.6 0.00 0.31 0.30 73 1005.6
20260506174704 64 285 0.9 1.7 0.00 0.31 0.30 72 1005.6
20260506174204 65 319 0.9 3.5 0.00 0.31 0.30 72 1005.4
20260506173204 65 347 1.7 5.2 0.00 0.31 0.30 70 1005.2
20260506172205 66 35 2.6 7.0 0.00 0.31 0.30 69 1005.2
20260506171704 66 21 2.6 7.0 0.00 0.31 0.30 68 1005.1
20260506170704 67 42 3.5 7.8 0.00 0.31 0.30 67 1005.5
20260506170205 67 33 3.5 8.7 0.00 0.31 0.30 67 1005.5
20260506165704 68 38 2.6 8.7 0.00 0.31 0.30 66 1005.5
20260506164705 68 322 2.6 4.3 0.00 0.31 0.30 59 1005.4
20260506164204 68 325 1.7 4.3 0.00 0.31 0.30 58 1005.4
20260506163704 68 252 1.7 6.1 0.00 0.31 0.30 58 1005.3
20260506163204 68 313 2.6 6.1 0.00 0.31 0.30 59 1005.2
20260506162704 68 287 2.6 6.1 0.00 0.31 0.30 59 1005.1
20260506162204 68 338 3.5 6.1 0.00 0.31 0.30 59 1005.1
20260506161705 68 272 2.6 4.3 0.00 0.31 0.30 58 1005.2
20260506161204 68 217 1.7 5.2 0.00 0.31 0.30 59 1005.4
20260506160704 68 294 1.7 7.0 0.00 0.31 0.30 59 1005.4
20260506160203 68 284 2.6 7.0 0.00 0.31 0.30 58 1005.5
20260506155704 68 262 2.6 7.0 0.00 0.31 0.30 59 1005.6
20260506155204 68 244 2.6 5.2 0.00 0.31 0.30 58 1005.6
20260506154704 68 246 2.6 6.1 0.00 0.31 0.30 58 1005.6
20260506154204 68 226 2.6 7.0 0.00 0.31 0.30 58 1005.7
20260506153704 69 238 2.6 8.7 0.00 0.31 0.30 58 1005.7
20260506153204 69 230 3.5 8.7 0.00 0.31 0.30 57 1005.8
20260506152204 69 264 3.5 9.6 0.00 0.31 0.30 56 1005.9
20260506151704 69 237 3.5 9.6 0.00 0.31 0.30 55 1005.8
20260506150705 69 229 3.5 7.8 0.00 0.31 0.30 57 1005.8
20260506150204 69 175 3.5 7.8 0.00 0.31 0.30 55 1005.9
20260506145703 69 235 3.5 7.8 0.00 0.31 0.30 57 1005.8
20260506144704 69 173 2.6 10.4 0.00 0.31 0.30 56 1006.0
20260506143704 70 234 4.3 10.4 0.00 0.31 0.30 56 1006.0
20260506143204 70 222 3.5 11.3 0.00 0.31 0.30 56 1006.2
20260506142704 70 212 4.3 11.3 0.00 0.31 0.30 54 1006.2
20260506142204 71 248 5.2 11.3 0.00 0.31 0.30 54 1006.2
20260506141704 71 290 4.3 8.7 0.00 0.31 0.30 55 1006.2
20260506141204 71 173 3.5 8.7 0.00 0.31 0.30 53 1006.3
20260506140704 71 315 3.5 9.6 0.00 0.31 0.30 55 1006.3
20260506140204 71 237 5.2 9.6 0.00 0.31 0.30 55 1006.3
20260506135204 71 243 2.6 14.8 0.00 0.31 0.30 54 1006.5
20260506133704 70 286 3.5 12.2 0.00 0.31 0.30 55 1006.5
20260506132704 70 247 5.2 12.2 0.00 0.31 0.30 55 1006.3
20260506132204 70 242 3.5 13.9 0.00 0.31 0.30 57 1006.4
20260506131704 70 226 5.2 13.9 0.00 0.31 0.30 57 1006.5
20260506130704 71 310 7.0 13.0 0.00 0.31 0.30 55 1006.5
20260506130204 70 292 5.2 10.4 0.00 0.31 0.30 56 1006.6
20260506125704 70 213 5.2 10.4 0.00 0.31 0.30 57 1006.7
20260506125204 70 290 3.5 13.0 0.00 0.31 0.30 58 1006.6
20260506124703 70 196 4.3 13.0 0.00 0.31 0.30 58 1006.6
20260506124204 70 252 5.2 13.0 0.00 0.31 0.30 57 1006.7
20260506123704 70 225 4.3 12.2 0.00 0.31 0.30 58 1006.7
20260506123206 70 313 5.2 12.2 0.00 0.31 0.30 59 1006.9
20260506122704 70 211 5.2 12.2 0.00 0.31 0.30 58 1006.8
20260506121704 69 289 4.3 10.4 0.00 0.31 0.30 61 1006.8
20260506121204 69 214 4.3 9.6 0.00 0.31 0.30 62 1006.9
20260506120705 69 241 3.5 9.6 0.00 0.31 0.30 62 1006.8
20260506120204 69 218 3.5 9.6 0.00 0.31 0.30 63 1006.9
20260506115704 69 242 3.5 9.6 0.00 0.31 0.30 63 1006.8
20260506114704 68 252 4.3 11.3 0.00 0.31 0.30 64 1006.8
20260506114204 68 292 5.2 9.6 0.00 0.31 0.30 64 1006.7
20260506113704 68 273 4.3 9.6 0.00 0.31 0.30 64 1006.7
20260506112704 67 288 3.5 13.9 0.00 0.31 0.30 67 1006.6
20260506112204 66 266 4.3 13.9 0.00 0.31 0.30 69 1006.6
20260506111204 65 288 4.3 9.6 0.00 0.31 0.30 67 1006.5
20260506110704 65 258 3.5 8.7 0.00 0.31 0.30 68 1006.6
20260506110204 65 211 3.5 9.6 0.00 0.31 0.30 69 1006.6
20260506105704 65 276 3.5 9.6 0.00 0.31 0.30 70 1006.7
20260506105205 65 244 3.5 9.6 0.00 0.31 0.30 72 1006.7
20260506104705 65 187 2.6 9.6 0.00 0.31 0.30 70 1006.6
20260506104204 65 184 2.6 8.7 0.00 0.31 0.30 73 1006.6
20260506103704 64 266 3.5 7.8 0.00 0.31 0.30 73 1006.5
20260506102204 65 147 3.5 9.6 0.00 0.31 0.30 72 1006.6
20260506101704 65 221 4.3 9.6 0.00 0.31 0.30 74 1006.6
20260506101204 64 248 5.2 9.6 0.00 0.31 0.30 74 1006.6
20260506100705 64 252 3.5 9.6 0.00 0.31 0.30 76 1006.7
20260506094704 62 168 3.5 12.2 0.00 0.31 0.30 76 1006.8
20260506094203 62 251 4.3 12.2 0.00 0.31 0.30 76 1006.8
20260506093704 63 260 4.3 9.6 0.00 0.31 0.30 75 1006.7
20260506093204 63 218 4.3 10.4 0.00 0.31 0.30 77 1006.7
20260506092204 64 241 5.2 13.9 0.00 0.31 0.30 73 1006.6
20260506091704 64 284 6.1 13.9 0.00 0.31 0.30 76 1006.5
20260506090205 62 231 5.2 14.8 0.00 0.31 0.30 79 1006.5
20260506085704 62 203 6.1 14.8 0.00 0.31 0.30 78 1006.4
20260506084204 62 233 4.3 15.6 0.00 0.31 0.30 78 1006.3
20260506083704 62 140 6.1 15.6 0.00 0.31 0.30 79 1006.1
20260506083204 61 242 6.1 15.6 0.00 0.31 0.30 80 1006.0
20260506082704 61 229 5.2 14.8 0.00 0.31 0.30 80 1006.0
20260506082204 61 183 6.1 14.8 0.00 0.31 0.30 81 1006.0
20260506081204 61 211 4.3 13.0 0.00 0.31 0.30 80 1006.0
20260506080704 61 294 5.2 13.0 0.00 0.31 0.30 82 1005.8
20260506080204 60 240 7.0 13.0 0.00 0.31 0.30 81 1005.8
20260506072205 59 250 4.3 10.4 0.00 0.31 0.30 83 1005.6
20260506071705 59 224 4.3 12.2 0.00 0.31 0.30 84 1005.6
20260506071204 58 242 5.2 13.9 0.00 0.31 0.30 84 1005.5
20260506070704 58 209 6.1 13.9 0.00 0.31 0.30 85 1005.4
20260506070204 58 253 5.2 13.9 0.00 0.31 0.30 86 1005.5
20260506062204 56 214 5.2 13.9 0.00 0.31 0.30 88 1005.7
20260506061704 56 185 5.2 13.9 0.00 0.31 0.30 88 1005.6
20260506061203 57 271 6.1 13.0 0.00 0.31 0.30 87 1005.6